Time,TemperatureF,DewpointF,PressureIn,WindDirection,WindDirectionDegrees,WindSpeedMPH,WindSpeedGustMPH,Humidity,HourlyPrecipIn,Conditions,Clouds,dailyrainin,SoftwareType,DateUTC
2013-08-26 00:02:00,69.7,66.3,30.10,WSW,246,2.1,3.5,89,0.00,,,0.00,WeatherDisplay:10.37,2013-08-26 05:02:00,
2013-08-26 00:07:00,69.5,66.1,30.10,SE,137,1.2,2.3,89,0.00,,,0.00,WeatherDisplay:10.37,2013-08-26 05:07:00,
2013-08-26 00:12:00,69.3,65.9,30.10,SSW,195,1.8,3.5,89,0.00,,,0.00,WeatherDisplay:10.37,2013-08-26 05:12:00,
2013-08-26 00:17:00,69.1,66.0,30.10,SW,224,1.7,4.0,90,0.00,,,0.00,WeatherDisplay:10.37,2013-08-26 05:17:00,
2013-08-26 00:22:00,68.9,65.8,30.10,SSW,195,2.0,3.5,90,0.00,,,0.00,WeatherDisplay:10.37,2013-08-26 05:22:00,
2013-08-26 00:27:00,68.8,65.7,30.10,SSW,195,2.0,3.5,90,0.00,,,0.00,WeatherDisplay:10.37,2013-08-26 05:27:00,
2013-08-26 00:32:00,68.7,66.0,30.10,South,170,2.1,4.6,91,0.00,,,0.00,WeatherDisplay:10.37,2013-08-26 05:32:00,
2013-08-26 00:37:00,68.6,65.9,30.10,SE,141,2.1,4.6,91,0.00,,,0.00,WeatherDisplay:10.37,2013-08-26 05:37:00,
2013-08-26 00:42:00,68.5,65.8,30.10,South,180,1.6,3.5,91,0.00,,,0.00,WeatherDisplay:10.37,2013-08-26 05:42:00,
2013-08-26 00:47:00,68.3,65.6,30.10,SE,146,0.8,2.3,91,0.00,,,0.00,WeatherDisplay:10.37,2013-08-26 05:47:00,
2013-08-26 00:52:00,68.1,65.4,30.10,SSE,161,0.9,2.3,91,0.00,,,0.00,WeatherDisplay:10.37,2013-08-26 05:52:00,
2013-08-26 00:57:00,68.0,65.6,30.09,South,176,1.3,3.5,92,0.00,,,0.00,WeatherDisplay:10.37,2013-08-26 05:57:00,
2013-08-26 01:02:00,68.0,65.6,30.09,SSW,200,0.7,2.3,92,0.00,,,0.00,WeatherDisplay:10.37,2013-08-26 06:02:00,
2013-08-26 01:07:00,67.9,65.5,30.09,South,190,1.5,3.5,92,0.00,,,0.00,WeatherDisplay:10.37,2013-08-26 06:07:00,
2013-08-26 01:12:00,67.7,65.3,30.09,SSW,195,0.9,3.5,92,0.00,,,0.00,WeatherDisplay:10.37,2013-08-26 06:12:00,
2013-08-26 01:17:00,67.6,65.2,30.09,SSW,201,1.3,2.3,92,0.00,,,0.00,WeatherDisplay:10.37,2013-08-26 06:17:00,
2013-08-26 01:22:00,67.6,65.2,30.09,South,173,1.6,3.5,92,0.00,,,0.00,WeatherDisplay:10.37,2013-08-26 06:22:00,
2013-08-26 01:27:00,67.7,65.3,30.09,South,187,2.0,3.5,92,0.00,,,0.00,WeatherDisplay:10.37,2013-08-26 06:27:00,
2013-08-26 01:32:00,67.7,65.3,30.09,SSW,195,1.7,2.3,92,0.00,,,0.00,WeatherDisplay:10.37,2013-08-26 06:32:00,
2013-08-26 01:37:00,67.5,65.1,30.08,SSW,195,1.7,3.5,92,0.00,,,0.00,WeatherDisplay:10.37,2013-08-26 06:37:00,
2013-08-26 01:42:00,67.3,64.9,30.08,South,174,2.5,5.8,92,0.00,,,0.00,WeatherDisplay:10.37,2013-08-26 06:42:00,
2013-08-26 01:47:00,67.5,64.8,30.08,SSW,200,2.0,3.5,91,0.00,,,0.00,WeatherDisplay:10.37,2013-08-26 06:47:00,
2013-08-26 01:52:00,67.5,64.8,30.08,SE,139,2.2,3.5,91,0.00,,,0.00,WeatherDisplay:10.37,2013-08-26 06:52:00,
2013-08-26 01:57:00,67.6,64.9,30.08,SW,217,1.3,2.3,91,0.00,,,0.00,WeatherDisplay:10.37,2013-08-26 06:57:00,
2013-08-26 02:02:00,67.6,64.9,30.08,WSW,238,1.6,3.5,91,0.00,,,0.00,WeatherDisplay:10.37,2013-08-26 07:02:00,
2013-08-26 02:07:00,67.7,64.7,30.08,West,259,0.6,2.3,90,0.00,,,0.00,WeatherDisplay:10.37,2013-08-26 07:07:00,
2013-08-26 02:12:00,67.6,64.6,30.09,SSW,207,1.0,2.3,90,0.00,,,0.00,WeatherDisplay:10.37,2013-08-26 07:12:00,
2013-08-26 02:17:00,67.5,64.5,30.08,SSW,212,1.2,3.0,90,0.00,,,0.00,WeatherDisplay:10.37,2013-08-26 07:17:00,
2013-08-26 02:22:00,67.5,64.5,30.09,SW,229,1.1,3.5,90,0.00,,,0.00,WeatherDisplay:10.37,2013-08-26 07:22:00,
2013-08-26 02:27:00,67.3,64.3,30.09,SSW,203,0.9,2.3,90,0.00,,,0.00,WeatherDisplay:10.37,2013-08-26 07:27:00,
2013-08-26 02:32:00,67.3,64.3,30.09,SW,224,0.6,1.1,90,0.00,,,0.00,WeatherDisplay:10.37,2013-08-26 07:32:00,
2013-08-26 02:37:00,67.1,64.1,30.08,South,191,0.7,2.3,90,0.00,,,0.00,WeatherDisplay:10.37,2013-08-26 07:37:00,
2013-08-26 02:42:00,66.9,63.9,30.09,WSW,243,0.1,1.1,90,0.00,,,0.00,WeatherDisplay:10.37,2013-08-26 07:42:00,
2013-08-26 02:47:00,66.8,64.1,30.09,WSW,240,0.3,1.1,91,0.00,,,0.00,WeatherDisplay:10.37,2013-08-26 07:47:00,
2013-08-26 02:52:00,66.7,64.0,30.09,WSW,238,0.1,0.0,91,0.00,,,0.00,WeatherDisplay:10.37,2013-08-26 07:52:00,
2013-08-26 02:57:00,66.4,63.7,30.09,WSW,238,0.0,0.0,91,0.00,,,0.00,WeatherDisplay:10.37,2013-08-26 07:57:00,
2013-08-26 03:02:00,66.3,63.6,30.09,WSW,238,0.0,0.0,91,0.00,,,0.00,WeatherDisplay:10.37,2013-08-26 08:02:00,
2013-08-26 03:07:00,66.2,63.5,30.10,WSW,238,0.0,0.0,91,0.00,,,0.00,WeatherDisplay:10.37,2013-08-26 08:07:00,
2013-08-26 03:12:00,66.0,63.6,30.09,WSW,238,0.0,0.0,92,0.00,,,0.00,WeatherDisplay:10.37,2013-08-26 08:12:00,
2013-08-26 03:17:00,65.7,63.3,30.10,WSW,239,0.0,1.1,92,0.00,,,0.00,WeatherDisplay:10.37,2013-08-26 08:17:00,
2013-08-26 03:22:00,65.4,63.0,30.10,WSW,238,0.0,0.0,92,0.00,,,0.00,WeatherDisplay:10.37,2013-08-26 08:22:00,
2013-08-26 03:27:00,65.3,62.9,30.10,WSW,238,0.0,0.0,92,0.00,,,0.00,WeatherDisplay:10.37,2013-08-26 08:27:00,
2013-08-26 03:32:00,65.2,63.1,30.10,WSW,238,0.0,0.0,93,0.00,,,0.00,WeatherDisplay:10.37,2013-08-26 08:32:00,
2013-08-26 03:37:00,65.1,63.0,30.09,WSW,239,0.0,0.0,93,0.00,,,0.00,WeatherDisplay:10.37,2013-08-26 08:37:00,
2013-08-26 03:42:00,65.0,62.9,30.10,WSW,239,0.0,0.0,93,0.00,,,0.00,WeatherDisplay:10.37,2013-08-26 08:42:00,
2013-08-26 03:47:00,65.0,62.9,30.09,WSW,238,0.0,0.0,93,0.00,,,0.00,WeatherDisplay:10.37,2013-08-26 08:47:00,
2013-08-26 03:52:00,64.8,62.7,30.09,WSW,239,0.0,0.0,93,0.00,,,0.00,WeatherDisplay:10.37,2013-08-26 08:52:00,
2013-08-26 03:57:00,64.7,62.6,30.09,WSW,239,0.0,0.0,93,0.00,,,0.00,WeatherDisplay:10.37,2013-08-26 08:57:00,
2013-08-26 04:02:00,64.7,62.6,30.09,WSW,239,0.0,0.0,93,0.00,,,0.00,WeatherDisplay:10.37,2013-08-26 09:02:00,
2013-08-26 04:08:00,64.4,62.3,30.08,WSW,239,0.0,0.0,93,0.00,,,0.00,WeatherDisplay:10.37,2013-08-26 09:08:00,
2013-08-26 04:13:00,64.4,62.6,30.08,SSW,212,1.3,2.0,94,0.00,,,0.00,WeatherDisplay:10.37,2013-08-26 09:13:00,
2013-08-26 04:18:00,65.1,63.6,30.08,SSW,200,2.1,4.6,95,0.00,,,0.00,WeatherDisplay:10.37,2013-08-26 09:18:00,
2013-08-26 04:23:00,65.8,64.0,30.08,SSW,200,2.6,4.0,94,0.00,,,0.00,WeatherDisplay:10.37,2013-08-26 09:23:00,
2013-08-26 04:28:00,66.3,63.9,30.08,SW,227,3.7,5.8,92,0.00,,,0.00,WeatherDisplay:10.37,2013-08-26 09:28:00,
2013-08-26 04:33:00,66.6,64.2,30.08,SW,226,2.4,4.6,92,0.00,,,0.00,WeatherDisplay:10.37,2013-08-26 09:33:00,
2013-08-26 04:38:00,66.8,64.1,30.08,SSW,210,3.0,4.0,91,0.00,,,0.00,WeatherDisplay:10.37,2013-08-26 09:38:00,
2013-08-26 04:43:00,67.0,64.3,30.08,SW,219,2.7,3.5,91,0.00,,,0.00,WeatherDisplay:10.37,2013-08-26 09:43:00,
2013-08-26 04:48:00,67.2,64.5,30.08,SSW,200,2.8,5.8,91,0.00,,,0.00,WeatherDisplay:10.37,2013-08-26 09:48:00,
2013-08-26 04:53:00,67.3,64.3,30.08,West,271,1.6,3.5,90,0.00,,,0.00,WeatherDisplay:10.37,2013-08-26 09:53:00,
2013-08-26 04:58:00,67.3,64.3,30.09,SSW,193,2.0,3.5,90,0.00,,,0.00,WeatherDisplay:10.37,2013-08-26 09:58:00,
2013-08-26 05:03:00,67.2,64.2,30.09,SW,232,1.0,2.3,90,0.00,,,0.00,WeatherDisplay:10.37,2013-08-26 10:03:00,
2013-08-26 05:08:00,67.2,64.2,30.09,WSW,253,1.3,3.5,90,0.00,,,0.00,WeatherDisplay:10.37,2013-08-26 10:08:00,
2013-08-26 05:13:00,67.0,64.0,30.09,West,276,0.9,1.1,90,0.00,,,0.00,WeatherDisplay:10.37,2013-08-26 10:13:00,
2013-08-26 05:18:00,66.8,64.1,30.09,WSW,257,0.5,2.3,91,0.00,,,0.00,WeatherDisplay:10.37,2013-08-26 10:18:00,
2013-08-26 05:23:00,66.6,63.9,30.09,WNW,290,1.2,2.3,91,0.00,,,0.00,WeatherDisplay:10.37,2013-08-26 10:23:00,
2013-08-26 05:28:00,66.6,63.9,30.09,West,277,0.5,1.1,91,0.00,,,0.00,WeatherDisplay:10.37,2013-08-26 10:28:00,
2013-08-26 05:33:00,66.4,63.7,30.09,West,277,0.8,1.1,91,0.00,,,0.00,WeatherDisplay:10.37,2013-08-26 10:33:00,
2013-08-26 05:38:00,66.3,63.6,30.10,West,259,0.7,1.1,91,0.00,,,0.00,WeatherDisplay:10.37,2013-08-26 10:38:00,
2013-08-26 05:43:00,66.1,63.7,30.09,West,274,1.0,1.1,92,0.00,,,0.00,WeatherDisplay:10.37,2013-08-26 10:43:00,
2013-08-26 05:48:00,66.0,63.6,30.09,West,260,0.3,1.1,92,0.00,,,0.00,WeatherDisplay:10.37,2013-08-26 10:48:00,
2013-08-26 05:53:00,65.8,63.4,30.09,SW,226,0.5,1.1,92,0.00,,,0.00,WeatherDisplay:10.37,2013-08-26 10:53:00,
2013-08-26 05:58:00,65.8,63.4,30.09,West,269,1.6,2.3,92,0.00,,,0.00,WeatherDisplay:10.37,2013-08-26 10:58:00,
2013-08-26 06:03:00,65.7,63.6,30.09,West,280,1.5,2.3,93,0.00,CLR,,0.00,WeatherDisplay:10.37,2013-08-26 11:03:00,
2013-08-26 06:08:00,65.8,63.7,30.09,West,260,1.4,3.5,93,0.00,CLR,,0.00,WeatherDisplay:10.37,2013-08-26 11:08:00,
2013-08-26 06:13:00,65.8,63.7,30.09,West,280,1.4,2.3,93,0.00,CLR,,0.00,WeatherDisplay:10.37,2013-08-26 11:13:00,
2013-08-26 06:18:00,65.8,63.7,30.09,WSW,253,1.2,2.3,93,0.00,CLR,,0.00,WeatherDisplay:10.37,2013-08-26 11:18:00,
2013-08-26 06:23:00,65.8,63.7,30.09,WSW,256,1.3,2.3,93,0.00,CLR,,0.00,WeatherDisplay:10.37,2013-08-26 11:23:00,
2013-08-26 06:28:00,65.9,63.8,30.10,West,270,1.4,2.3,93,0.00,CLR,,0.00,WeatherDisplay:10.37,2013-08-26 11:28:00,
2013-08-26 06:33:00,65.9,63.8,30.09,WNW,284,1.3,2.3,93,0.00,CLR,,0.00,WeatherDisplay:10.37,2013-08-26 11:33:00,
2013-08-26 06:38:00,66.0,63.9,30.09,WNW,284,1.3,2.3,93,0.00,CLR,,0.00,WeatherDisplay:10.37,2013-08-26 11:38:00,
2013-08-26 06:43:00,66.0,63.9,30.09,WNW,282,1.7,2.3,93,0.00,CLR,,0.00,WeatherDisplay:10.37,2013-08-26 11:43:00,
2013-08-26 06:48:00,66.1,64.0,30.09,West,262,1.2,2.3,93,0.00,CLR,,0.00,WeatherDisplay:10.37,2013-08-26 11:48:00,
2013-08-26 06:53:00,66.1,64.0,30.09,West,269,0.9,1.1,93,0.00,CLR,,0.00,WeatherDisplay:10.37,2013-08-26 11:53:00,
2013-08-26 06:58:00,66.2,64.1,30.09,West,267,0.6,1.1,93,0.00,CLR,,0.00,WeatherDisplay:10.37,2013-08-26 11:58:00,
2013-08-26 07:03:00,66.4,64.3,30.10,WNW,284,1.5,3.5,93,0.00,CLR,,0.00,WeatherDisplay:10.37,2013-08-26 12:03:00,
2013-08-26 07:08:00,66.6,64.5,30.10,West,281,1.5,2.3,93,0.00,CLR,,0.00,WeatherDisplay:10.37,2013-08-26 12:08:00,
2013-08-26 07:13:00,66.9,64.8,30.10,West,277,0.4,1.1,93,0.00,CLR,,0.00,WeatherDisplay:10.37,2013-08-26 12:13:00,
2013-08-26 07:18:00,67.2,64.8,30.11,WNW,288,0.6,1.1,92,0.00,CLR,,0.00,WeatherDisplay:10.37,2013-08-26 12:18:00,
2013-08-26 07:23:00,67.4,65.0,30.11,WNW,288,0.1,1.1,92,0.00,CLR,,0.00,WeatherDisplay:10.37,2013-08-26 12:23:00,
2013-08-26 07:28:00,67.7,65.3,30.11,West,280,0.1,1.1,92,0.00,CLR,,0.00,WeatherDisplay:10.37,2013-08-26 12:28:00,
2013-08-26 07:33:00,68.0,65.9,30.11,WSW,257,0.6,1.1,93,0.00,CLR,,0.00,WeatherDisplay:10.37,2013-08-26 12:33:00,
2013-08-26 07:38:00,68.4,66.3,30.11,WSW,257,0.0,0.0,93,0.00,CLR,,0.00,WeatherDisplay:10.37,2013-08-26 12:38:00,
2013-08-26 07:43:00,68.7,66.3,30.11,WSW,258,0.4,1.1,92,0.00,CLR,,0.00,WeatherDisplay:10.37,2013-08-26 12:43:00,
2013-08-26 07:48:00,69.1,66.7,30.11,WSW,245,1.2,2.3,92,0.00,CLR,,0.00,WeatherDisplay:10.37,2013-08-26 12:48:00,
2013-08-26 07:53:00,69.7,67.0,30.11,WSW,238,0.3,2.3,91,0.00,CLR,,0.00,WeatherDisplay:10.37,2013-08-26 12:53:00,
2013-08-26 07:58:00,70.1,67.0,30.11,WSW,240,1.7,2.3,90,0.00,CLR,,0.00,WeatherDisplay:10.37,2013-08-26 12:58:00,
2013-08-26 08:03:00,70.8,67.7,30.11,WSW,246,1.9,3.0,90,0.00,CLR,,0.00,WeatherDisplay:10.37,2013-08-26 13:03:00,
2013-08-26 08:08:00,71.4,67.7,30.11,WSW,252,2.1,3.5,88,0.00,CLR,,0.00,WeatherDisplay:10.37,2013-08-26 13:08:00,
2013-08-26 08:13:00,71.9,68.2,30.11,WSW,238,2.0,3.5,88,0.00,CLR,,0.00,WeatherDisplay:10.37,2013-08-26 13:13:00,
2013-08-26 08:18:00,72.6,68.5,30.11,West,264,2.5,3.5,87,0.00,CLR,,0.00,WeatherDisplay:10.37,2013-08-26 13:18:00,
2013-08-26 08:23:00,73.0,68.6,30.11,WSW,248,3.6,4.6,86,0.00,CLR,,0.00,WeatherDisplay:10.37,2013-08-26 13:23:00,
2013-08-26 08:28:00,73.6,69.2,30.11,West,274,2.1,3.5,86,0.00,CLR,,0.00,WeatherDisplay:10.37,2013-08-26 13:28:00,
2013-08-26 08:33:00,74.1,69.0,30.11,West,273,2.5,4.6,84,0.00,CLR,,0.00,WeatherDisplay:10.37,2013-08-26 13:33:00,
2013-08-26 08:38:00,74.7,69.5,30.10,WSW,257,2.6,3.5,84,0.00,CLR,,0.00,WeatherDisplay:10.37,2013-08-26 13:38:00,
2013-08-26 08:43:00,75.3,70.5,30.11,West,264,2.1,3.5,85,0.00,CLR,,0.00,WeatherDisplay:10.37,2013-08-26 13:43:00,
2013-08-26 08:48:00,75.8,70.3,30.10,WSW,238,2.9,5.0,83,0.00,CLR,,0.00,WeatherDisplay:10.37,2013-08-26 13:48:00,
2013-08-26 08:53:00,76.1,69.8,30.10,WSW,246,3.8,5.0,81,0.00,CLR,,0.00,WeatherDisplay:10.37,2013-08-26 13:53:00,
2013-08-26 08:58:00,76.4,70.5,30.10,WSW,254,2.8,5.0,82,0.00,CLR,,0.00,WeatherDisplay:10.37,2013-08-26 13:58:00,
2013-08-26 09:03:00,76.8,70.5,30.10,West,260,4.0,8.1,81,0.00,CLR,,0.00,WeatherDisplay:10.37,2013-08-26 14:03:00,
2013-08-26 09:08:00,77.3,71.0,30.10,WNW,283,4.5,6.9,81,0.00,CLR,,0.00,WeatherDisplay:10.37,2013-08-26 14:08:00,
2013-08-26 09:13:00,77.7,71.0,30.10,SW,228,3.5,5.0,80,0.00,CLR,,0.00,WeatherDisplay:10.37,2013-08-26 14:13:00,
2013-08-26 09:18:00,78.4,71.7,30.10,West,270,4.5,6.9,80,0.00,CLR,,0.00,WeatherDisplay:10.37,2013-08-26 14:18:00,
2013-08-26 09:23:00,78.5,71.4,30.09,WSW,256,4.7,7.0,79,0.00,CLR,,0.00,WeatherDisplay:10.37,2013-08-26 14:23:00,
2013-08-26 09:28:00,78.5,71.1,30.09,WSW,254,5.4,6.9,78,0.00,CLR,,0.00,WeatherDisplay:10.37,2013-08-26 14:28:00,
2013-08-26 09:33:00,78.6,71.9,30.09,West,262,4.1,4.6,80,0.00,CLR,,0.00,WeatherDisplay:10.37,2013-08-26 14:33:00,
2013-08-26 09:38:00,79.1,72.4,30.09,WSW,247,2.7,5.8,80,0.00,CLR,,0.00,WeatherDisplay:10.37,2013-08-26 14:38:00,
2013-08-26 09:43:00,79.6,72.1,30.09,WNW,284,3.9,4.6,78,0.00,CLR,,0.00,WeatherDisplay:10.37,2013-08-26 14:43:00,
2013-08-26 09:48:00,80.1,72.2,30.10,West,280,3.6,5.8,77,0.00,CLR,,0.00,WeatherDisplay:10.37,2013-08-26 14:48:00,
2013-08-26 09:53:00,80.6,73.1,30.10,WSW,245,3.6,5.8,78,0.00,CLR,,0.00,WeatherDisplay:10.37,2013-08-26 14:53:00,
2013-08-26 09:58:00,81.1,73.6,30.10,West,269,2.6,3.5,78,0.00,CLR,,0.00,WeatherDisplay:10.37,2013-08-26 14:58:00,
2013-08-26 10:03:00,81.6,74.1,30.10,West,269,3.4,4.6,78,0.00,CLR,,0.00,WeatherDisplay:10.37,2013-08-26 15:03:00,
2013-08-26 10:08:00,82.1,73.8,30.10,West,270,3.8,4.6,76,0.00,CLR,,0.00,WeatherDisplay:10.37,2013-08-26 15:08:00,
2013-08-26 10:13:00,82.9,75.3,30.10,WSW,239,3.8,4.6,78,0.00,CLR,,0.00,WeatherDisplay:10.37,2013-08-26 15:13:00,
2013-08-26 10:19:00,83.3,73.7,30.10,WNW,287,5.4,5.8,73,0.00,CLR,,0.00,WeatherDisplay:10.37,2013-08-26 15:19:00,
2013-08-26 10:24:00,83.3,74.1,30.10,NW,307,6.2,8.0,74,0.00,CLR,,0.00,WeatherDisplay:10.37,2013-08-26 15:24:00,
2013-08-26 10:29:00,83.4,73.4,30.10,WNW,285,6.7,8.1,72,0.00,CLR,,0.00,WeatherDisplay:10.37,2013-08-26 15:29:00,
2013-08-26 10:34:00,83.6,74.4,30.10,West,278,5.3,6.9,74,0.00,CLR,,0.00,WeatherDisplay:10.37,2013-08-26 15:34:00,
2013-08-26 10:39:00,83.8,74.6,30.10,West,273,5.1,6.9,74,0.00,CLR,,0.00,WeatherDisplay:10.37,2013-08-26 15:39:00,
2013-08-26 10:44:00,84.1,74.1,30.10,West,263,3.9,4.6,72,0.00,CLR,,0.00,WeatherDisplay:10.37,2013-08-26 15:44:00,
2013-08-26 10:49:00,84.5,74.5,30.10,West,277,3.8,5.8,72,0.00,CLR,,0.00,WeatherDisplay:10.37,2013-08-26 15:49:00,
2013-08-26 10:54:00,84.8,74.8,30.10,West,278,4.5,5.8,72,0.00,CLR,,0.00,WeatherDisplay:10.37,2013-08-26 15:54:00,
2013-08-26 10:59:00,85.0,75.8,30.09,West,260,4.3,4.6,74,0.00,CLR,,0.00,WeatherDisplay:10.37,2013-08-26 15:59:00,
2013-08-26 11:04:00,85.3,75.7,30.09,West,263,4.2,4.2,73,0.00,CLR,,0.00,WeatherDisplay:10.37,2013-08-26 16:04:00,
2013-08-26 11:09:00,85.2,75.1,30.09,West,271,5.3,5.3,72,0.00,CLR,,0.00,WeatherDisplay:10.37,2013-08-26 16:09:00,
2013-08-26 11:14:00,85.1,75.1,30.09,West,259,5.3,5.8,72,0.00,CLR,,0.00,WeatherDisplay:10.37,2013-08-26 16:14:00,
2013-08-26 11:19:00,85.4,75.8,30.09,West,269,4.0,6.9,73,0.00,CLR,,0.00,WeatherDisplay:10.37,2013-08-26 16:19:00,
2013-08-26 11:24:00,85.9,75.0,30.09,WSW,255,4.5,6.9,70,0.00,CLR,,0.00,WeatherDisplay:10.37,2013-08-26 16:24:00,
2013-08-26 11:29:00,86.1,76.0,30.09,WSW,238,3.7,4.6,72,0.00,CLR,,0.00,WeatherDisplay:10.37,2013-08-26 16:29:00,
2013-08-26 11:34:00,86.4,75.9,30.09,SW,221,3.9,4.6,71,0.00,CLR,,0.00,WeatherDisplay:10.37,2013-08-26 16:34:00,
2013-08-26 11:39:00,86.6,76.5,30.09,WSW,249,4.5,5.0,72,0.00,CLR,,0.00,WeatherDisplay:10.37,2013-08-26 16:39:00,
2013-08-26 11:44:00,87.0,76.5,30.08,WSW,246,4.0,6.9,71,0.00,CLR,,0.00,WeatherDisplay:10.37,2013-08-26 16:44:00,
2013-08-26 11:49:00,87.1,76.1,30.08,WNW,294,3.5,4.0,70,0.00,CLR,,0.00,WeatherDisplay:10.37,2013-08-26 16:49:00,
2013-08-26 11:54:00,86.8,75.8,30.08,West,281,3.4,5.8,70,0.00,CLR,,0.00,WeatherDisplay:10.37,2013-08-26 16:54:00,
2013-08-26 11:59:00,86.7,76.2,30.07,WSW,253,5.4,7.0,71,0.00,CLR,,0.00,WeatherDisplay:10.37,2013-08-26 16:59:00,
2013-08-26 12:04:00,86.8,77.1,30.07,West,277,4.7,5.0,73,0.00,CLR,,0.00,WeatherDisplay:10.37,2013-08-26 17:04:00,
2013-08-26 12:09:00,86.9,76.4,30.07,West,259,4.3,5.8,71,0.00,CLR,,0.00,WeatherDisplay:10.37,2013-08-26 17:09:00,
2013-08-26 12:14:00,87.2,77.1,30.07,WSW,253,3.6,5.8,72,0.00,CLR,,0.00,WeatherDisplay:10.37,2013-08-26 17:14:00,
2013-08-26 12:19:00,87.3,76.7,30.07,West,278,5.2,6.9,71,0.00,CLR,,0.00,WeatherDisplay:10.37,2013-08-26 17:19:00,
2013-08-26 12:24:00,87.0,76.0,30.07,West,263,4.6,5.8,70,0.00,CLR,,0.00,WeatherDisplay:10.37,2013-08-26 17:24:00,
2013-08-26 12:29:00,87.0,77.3,30.06,West,266,3.1,4.6,73,0.00,CLR,,0.00,WeatherDisplay:10.37,2013-08-26 17:29:00,
2013-08-26 12:34:00,87.3,76.3,30.06,West,270,4.1,5.0,70,0.00,CLR,,0.00,WeatherDisplay:10.37,2013-08-26 17:34:00,
2013-08-26 12:39:00,87.6,77.5,30.06,West,274,3.5,4.6,72,0.00,CLR,,0.00,WeatherDisplay:10.37,2013-08-26 17:39:00,
2013-08-26 12:44:00,88.3,77.3,30.06,West,270,2.9,5.0,70,0.00,CLR,,0.00,WeatherDisplay:10.37,2013-08-26 17:44:00,
2013-08-26 12:49:00,88.4,76.0,30.05,West,263,4.5,6.0,67,0.00,CLR,,0.00,WeatherDisplay:10.37,2013-08-26 17:49:00,
2013-08-26 12:54:00,88.6,77.1,30.05,NW,309,4.0,4.6,69,0.00,CLR,,0.00,WeatherDisplay:10.37,2013-08-26 17:54:00,
2013-08-26 12:59:00,88.7,76.3,30.05,WSW,252,5.1,7.0,67,0.00,CLR,,0.00,WeatherDisplay:10.37,2013-08-26 17:59:00,
2013-08-26 13:04:00,89.0,77.1,30.05,WSW,246,3.9,5.0,68,0.00,CLR,,0.00,WeatherDisplay:10.37,2013-08-26 18:04:00,
2013-08-26 13:09:00,89.2,77.7,30.05,West,276,1.5,3.5,69,0.00,CLR,,0.00,WeatherDisplay:10.37,2013-08-26 18:09:00,
2013-08-26 13:14:00,89.3,76.4,30.05,WNW,290,4.8,5.8,66,0.00,CLR,,0.00,WeatherDisplay:10.37,2013-08-26 18:14:00,
2013-08-26 13:19:00,89.2,76.4,30.04,WNW,287,2.8,3.5,66,0.00,CLR,,0.00,WeatherDisplay:10.37,2013-08-26 18:19:00,
2013-08-26 13:24:00,89.3,77.8,30.04,WNW,294,3.7,4.6,69,0.00,CLR,,0.00,WeatherDisplay:10.37,2013-08-26 18:24:00,
2013-08-26 13:29:00,89.2,75.9,30.04,WSW,249,4.7,6.9,65,0.00,CLR,,0.00,WeatherDisplay:10.37,2013-08-26 18:29:00,
2013-08-26 13:34:00,89.3,77.3,30.04,West,269,2.3,3.5,68,0.00,CLR,,0.00,WeatherDisplay:10.37,2013-08-26 18:34:00,
2013-08-26 13:39:00,89.5,75.7,30.04,SW,227,3.2,6.9,64,0.00,CLR,,0.00,WeatherDisplay:10.37,2013-08-26 18:39:00,
2013-08-26 13:44:00,89.8,75.0,30.03,West,273,3.9,4.6,62,0.00,CLR,,0.00,WeatherDisplay:10.37,2013-08-26 18:44:00,
2013-08-26 13:49:00,89.9,77.5,30.03,WSW,248,2.7,4.0,67,0.00,CLR,,0.00,WeatherDisplay:10.37,2013-08-26 18:49:00,
2013-08-26 13:54:00,90.1,77.7,30.03,WNW,286,3.7,6.0,67,0.00,CLR,,0.00,WeatherDisplay:10.37,2013-08-26 18:54:00,
2013-08-26 13:59:00,90.1,77.2,30.03,SW,228,2.7,6.0,66,0.00,CLR,,0.00,WeatherDisplay:10.37,2013-08-26 18:59:00,
2013-08-26 14:04:00,90.1,74.8,30.03,West,269,6.5,9.2,61,0.00,CLR,,0.00,WeatherDisplay:10.37,2013-08-26 19:04:00,
2013-08-26 14:09:00,90.0,76.2,30.03,WSW,243,3.5,5.0,64,0.00,CLR,,0.00,WeatherDisplay:10.37,2013-08-26 19:09:00,
2013-08-26 14:14:00,90.3,76.9,30.03,West,273,2.9,3.5,65,0.00,CLR,,0.00,WeatherDisplay:10.37,2013-08-26 19:14:00,
2013-08-26 14:19:00,90.4,75.6,30.03,West,274,5.5,8.1,62,0.00,CLR,,0.00,WeatherDisplay:10.37,2013-08-26 19:19:00,
2013-08-26 14:24:00,90.4,75.6,30.03,WSW,250,3.6,5.8,62,0.00,CLR,,0.00,WeatherDisplay:10.37,2013-08-26 19:24:00,
2013-08-26 14:29:00,90.5,75.2,30.03,West,274,4.2,6.9,61,0.00,CLR,,0.00,WeatherDisplay:10.37,2013-08-26 19:29:00,
2013-08-26 14:34:00,90.9,75.1,30.02,SW,229,4.2,5.8,60,0.00,CLR,,0.00,WeatherDisplay:10.37,2013-08-26 19:34:00,
2013-08-26 14:39:00,91.3,74.4,30.02,West,281,5.1,6.9,58,0.00,CLR,,0.00,WeatherDisplay:10.37,2013-08-26 19:39:00,
2013-08-26 14:44:00,91.2,75.9,30.02,WSW,253,4.4,5.0,61,0.00,CLR,,0.00,WeatherDisplay:10.37,2013-08-26 19:44:00,
2013-08-26 14:49:00,91.2,76.8,30.02,West,271,4.9,6.0,63,0.00,CLR,,0.00,WeatherDisplay:10.37,2013-08-26 19:49:00,
2013-08-26 14:54:00,90.9,74.6,30.02,West,271,6.1,8.1,59,0.00,CLR,,0.00,WeatherDisplay:10.37,2013-08-26 19:54:00,
2013-08-26 14:59:00,90.6,75.8,30.02,West,270,4.8,6.9,62,0.00,CLR,,0.00,WeatherDisplay:10.37,2013-08-26 19:59:00,
2013-08-26 15:04:00,90.8,76.0,30.01,West,262,4.1,6.0,62,0.00,CLR,,0.00,WeatherDisplay:10.37,2013-08-26 20:04:00,
2013-08-26 15:09:00,90.6,75.8,30.01,WSW,240,5.0,5.8,62,0.00,CLR,,0.00,WeatherDisplay:10.37,2013-08-26 20:09:00,
2013-08-26 15:14:00,90.5,76.2,30.01,SW,231,4.5,5.8,63,0.00,CLR,,0.00,WeatherDisplay:10.37,2013-08-26 20:14:00,
2013-08-26 15:19:00,90.8,75.5,30.01,SW,224,4.9,6.9,61,0.00,CLR,,0.00,WeatherDisplay:10.37,2013-08-26 20:19:00,
2013-08-26 15:24:00,90.8,74.5,30.01,West,264,3.7,5.8,59,0.00,CLR,,0.00,WeatherDisplay:10.37,2013-08-26 20:24:00,
2013-08-26 15:29:00,90.8,75.0,30.01,WSW,240,4.1,6.9,60,0.00,CLR,,0.00,WeatherDisplay:10.37,2013-08-26 20:29:00,
2013-08-26 15:34:00,90.8,76.5,30.01,WSW,243,3.2,5.8,63,0.00,CLR,,0.00,WeatherDisplay:10.37,2013-08-26 20:34:00,
2013-08-26 15:39:00,90.9,76.1,30.01,West,274,3.6,4.6,62,0.00,CLR,,0.00,WeatherDisplay:10.37,2013-08-26 20:39:00,
2013-08-26 15:44:00,90.8,76.5,30.00,West,270,3.1,4.6,63,0.00,CLR,,0.00,WeatherDisplay:10.37,2013-08-26 20:44:00,
2013-08-26 15:49:00,90.8,77.4,30.00,WSW,257,3.6,4.6,65,0.00,CLR,,0.00,WeatherDisplay:10.37,2013-08-26 20:49:00,
2013-08-26 15:54:00,90.2,76.8,30.00,SW,228,2.9,5.8,65,0.00,CLR,,0.00,WeatherDisplay:10.37,2013-08-26 20:54:00,
2013-08-26 15:59:00,90.2,74.9,30.00,WSW,243,5.0,9.2,61,0.00,CLR,,0.00,WeatherDisplay:10.37,2013-08-26 20:59:00,
2013-08-26 16:04:00,89.9,76.1,30.00,WSW,243,4.1,5.8,64,0.00,,,0.00,WeatherDisplay:10.37,2013-08-26 21:04:00,
2013-08-26 16:09:00,89.6,76.3,29.99,SW,222,3.0,5.8,65,0.00,,,0.00,WeatherDisplay:10.37,2013-08-26 21:09:00,
2013-08-26 16:14:00,89.5,75.7,29.99,SW,219,3.1,5.8,64,0.00,,,0.00,WeatherDisplay:10.37,2013-08-26 21:14:00,
2013-08-26 16:19:00,89.5,76.2,29.99,SW,232,2.4,3.5,65,0.00,,,0.00,WeatherDisplay:10.37,2013-08-26 21:19:00,
2013-08-26 16:24:00,89.4,77.0,29.99,WSW,243,2.2,3.5,67,0.00,,,0.00,WeatherDisplay:10.37,2013-08-26 21:24:00,
2013-08-26 16:29:00,89.6,76.3,29.99,SW,228,3.5,6.9,65,0.00,,,0.00,WeatherDisplay:10.37,2013-08-26 21:29:00,
2013-08-26 16:34:00,89.9,77.0,29.99,SW,221,2.9,5.8,66,0.00,,,0.00,WeatherDisplay:10.37,2013-08-26 21:34:00,
2013-08-26 16:39:00,90.5,77.1,29.99,WSW,249,3.7,5.8,65,0.00,,,0.00,WeatherDisplay:10.37,2013-08-26 21:39:00,
2013-08-26 16:44:00,91.0,77.6,29.99,SSW,192,3.9,5.0,65,0.00,,,0.00,WeatherDisplay:10.37,2013-08-26 21:44:00,
2013-08-26 16:49:00,91.2,76.4,29.98,SSW,204,3.4,4.0,62,0.00,,,0.00,WeatherDisplay:10.37,2013-08-26 21:49:00,
2013-08-26 16:54:00,91.2,75.9,29.98,SSW,193,3.4,5.8,61,0.00,,,0.00,WeatherDisplay:10.37,2013-08-26 21:54:00,
2013-08-26 17:00:00,91.2,77.3,29.98,WSW,239,2.5,3.5,64,0.00,,,0.00,WeatherDisplay:10.37,2013-08-26 22:00:00,
2013-08-26 17:05:00,91.1,76.3,29.98,SW,215,3.3,4.0,62,0.00,,,0.00,WeatherDisplay:10.37,2013-08-26 22:05:00,
2013-08-26 17:10:00,90.8,75.5,29.98,SW,232,4.3,6.9,61,0.00,,,0.00,WeatherDisplay:10.37,2013-08-26 22:10:00,
2013-08-26 17:15:00,90.6,76.7,29.98,WSW,240,2.6,4.6,64,0.00,,,0.00,WeatherDisplay:10.37,2013-08-26 22:15:00,
2013-08-26 17:20:00,90.9,76.6,29.98,SW,217,1.6,3.5,63,0.00,,,0.00,WeatherDisplay:10.37,2013-08-26 22:20:00,
2013-08-26 17:25:00,91.1,77.2,29.98,SSW,211,2.1,4.6,64,0.00,,,0.00,WeatherDisplay:10.37,2013-08-26 22:25:00,
2013-08-26 17:30:00,90.8,76.5,29.98,SW,217,2.9,4.6,63,0.00,,,0.00,WeatherDisplay:10.37,2013-08-26 22:30:00,
2013-08-26 17:35:00,90.2,76.8,29.98,SW,229,1.7,3.5,65,0.00,,,0.00,WeatherDisplay:10.37,2013-08-26 22:35:00,
2013-08-26 17:40:00,90.1,76.7,29.98,SSW,200,2.5,3.5,65,0.00,,,0.00,WeatherDisplay:10.37,2013-08-26 22:40:00,
2013-08-26 17:45:00,90.1,76.3,29.98,SW,222,3.6,4.6,64,0.00,,,0.00,WeatherDisplay:10.37,2013-08-26 22:45:00,
2013-08-26 17:50:00,90.0,76.2,29.98,SSW,212,3.2,4.6,64,0.00,,,0.00,WeatherDisplay:10.37,2013-08-26 22:50:00,
2013-08-26 17:55:00,89.9,76.6,29.98,SSE,155,3.2,3.5,65,0.00,,,0.00,WeatherDisplay:10.37,2013-08-26 22:55:00,
2013-08-26 18:00:00,89.7,76.4,29.98,SW,228,2.1,3.5,65,0.00,,,0.00,WeatherDisplay:10.37,2013-08-26 23:00:00,
2013-08-26 18:05:00,89.6,75.8,29.98,SW,214,2.1,5.8,64,0.00,CLR,,0.00,WeatherDisplay:10.37,2013-08-26 23:05:00,
2013-08-26 18:10:00,89.5,76.2,29.97,SW,225,2.2,3.5,65,0.00,CLR,,0.00,WeatherDisplay:10.37,2013-08-26 23:10:00,
2013-08-26 18:15:00,89.4,76.1,29.97,SW,232,2.7,3.5,65,0.00,CLR,,0.00,WeatherDisplay:10.37,2013-08-26 23:15:00,
2013-08-26 18:20:00,89.2,76.4,29.97,SW,226,2.4,4.6,66,0.00,CLR,,0.00,WeatherDisplay:10.37,2013-08-26 23:20:00,
2013-08-26 18:25:00,89.0,76.6,29.97,SSW,204,1.7,3.5,67,0.00,CLR,,0.00,WeatherDisplay:10.37,2013-08-26 23:25:00,
2013-08-26 18:30:00,89.0,77.1,29.97,SSW,192,1.4,3.5,68,0.00,CLR,,0.00,WeatherDisplay:10.37,2013-08-26 23:30:00,
2013-08-26 18:35:00,88.9,76.5,29.96,South,177,2.0,3.5,67,0.00,CLR,,0.00,WeatherDisplay:10.37,2013-08-26 23:35:00,
2013-08-26 18:40:00,88.6,76.2,29.96,SSW,197,1.2,3.5,67,0.00,CLR,,0.00,WeatherDisplay:10.37,2013-08-26 23:40:00,
2013-08-26 18:45:00,88.4,76.5,29.96,SW,219,2.0,3.5,68,0.00,CLR,,0.00,WeatherDisplay:10.37,2013-08-26 23:45:00,
2013-08-26 18:50:00,87.9,76.5,29.96,SSW,204,1.1,2.3,69,0.00,CLR,,0.00,WeatherDisplay:10.37,2013-08-26 23:50:00,
2013-08-26 18:55:00,87.5,76.5,29.96,SSW,202,1.0,3.0,70,0.00,CLR,,0.00,WeatherDisplay:10.37,2013-08-26 23:55:00,
2013-08-26 19:00:00,87.0,76.0,29.96,SSW,203,1.0,4.0,70,0.00,CLR,,0.00,WeatherDisplay:10.37,2013-08-27 00:00:00,
2013-08-26 19:05:00,86.4,75.8,29.95,SSW,207,1.0,3.0,71,0.00,CLR,,0.00,WeatherDisplay:10.37,2013-08-27 00:05:00,
2013-08-26 19:10:00,85.6,75.5,29.95,SSW,201,1.9,2.3,72,0.00,CLR,,0.00,WeatherDisplay:10.37,2013-08-27 00:10:00,
2013-08-26 19:15:00,84.9,75.7,29.95,South,177,1.4,2.3,74,0.00,CLR,,0.00,WeatherDisplay:10.37,2013-08-27 00:15:00,
2013-08-26 19:20:00,84.2,75.4,29.95,SSE,160,1.3,3.5,75,0.00,CLR,,0.00,WeatherDisplay:10.37,2013-08-27 00:20:00,
2013-08-26 19:25:00,83.6,75.3,29.95,South,171,1.0,2.0,76,0.00,CLR,,0.00,WeatherDisplay:10.37,2013-08-27 00:25:00,
2013-08-26 19:30:00,82.9,75.0,29.95,SSE,166,1.0,2.0,77,0.00,CLR,,0.00,WeatherDisplay:10.37,2013-08-27 00:30:00,
2013-08-26 19:35:00,82.3,74.7,29.95,SSE,165,1.0,3.0,78,0.00,CLR,,0.00,WeatherDisplay:10.37,2013-08-27 00:35:00,
2013-08-26 19:40:00,81.5,74.7,29.95,SW,214,2.2,3.5,80,0.00,CLR,,0.00,WeatherDisplay:10.37,2013-08-27 00:40:00,
2013-08-26 19:45:00,80.9,74.5,29.94,SW,214,1.4,2.3,81,0.00,CLR,,0.00,WeatherDisplay:10.37,2013-08-27 00:45:00,
2013-08-26 19:50:00,80.3,74.3,29.94,SSW,207,1.9,3.5,82,0.00,CLR,,0.00,WeatherDisplay:10.37,2013-08-27 00:50:00,
2013-08-26 19:55:00,79.9,73.9,29.94,SSE,163,2.0,3.5,82,0.00,CLR,,0.00,WeatherDisplay:10.37,2013-08-27 00:55:00,
2013-08-26 20:00:00,79.5,73.9,29.94,South,175,1.0,3.0,83,0.00,,,0.00,WeatherDisplay:10.37,2013-08-27 01:00:00,
2013-08-26 20:05:00,79.2,73.6,29.94,South,186,2.0,4.0,83,0.00,,,0.00,WeatherDisplay:10.37,2013-08-27 01:05:00,
2013-08-26 20:10:00,79.0,73.7,29.94,South,184,1.7,3.5,84,0.00,,,0.00,WeatherDisplay:10.37,2013-08-27 01:10:00,
2013-08-26 20:15:00,78.8,73.6,29.94,SSW,193,1.6,3.5,84,0.00,,,0.00,WeatherDisplay:10.37,2013-08-27 01:15:00,
2013-08-26 20:20:00,78.5,73.3,29.94,SSE,162,0.9,1.1,84,0.00,,,0.00,WeatherDisplay:10.37,2013-08-27 01:20:00,
2013-08-26 20:25:00,78.2,73.3,29.94,SSW,198,1.4,3.5,85,0.00,,,0.00,WeatherDisplay:10.37,2013-08-27 01:25:00,
2013-08-26 20:31:00,77.9,73.0,29.94,SSW,193,1.4,3.5,85,0.00,,,0.00,WeatherDisplay:10.37,2013-08-27 01:31:00,
2013-08-26 20:36:00,77.7,73.2,29.94,SW,219,2.1,3.5,86,0.00,,,0.00,WeatherDisplay:10.37,2013-08-27 01:36:00,
2013-08-26 20:41:00,77.6,73.1,29.94,SW,215,2.3,3.5,86,0.00,,,0.00,WeatherDisplay:10.37,2013-08-27 01:41:00,
2013-08-26 20:46:00,77.4,72.9,29.95,SSW,208,2.0,4.0,86,0.00,,,0.00,WeatherDisplay:10.37,2013-08-27 01:46:00,
2013-08-26 20:51:00,77.2,72.7,29.95,SSW,204,2.2,4.0,86,0.00,,,0.00,WeatherDisplay:10.37,2013-08-27 01:51:00,
2013-08-26 20:57:00,77.2,72.7,29.95,SSE,165,2.8,3.5,86,0.00,,,0.00,WeatherDisplay:10.37,2013-08-27 01:57:00,
2013-08-26 21:02:00,77.2,72.7,29.95,SSW,193,2.9,4.0,86,0.00,,,0.00,WeatherDisplay:10.37,2013-08-27 02:02:00,
2013-08-26 21:07:00,77.1,72.6,29.95,SW,214,2.4,3.5,86,0.00,,,0.00,WeatherDisplay:10.37,2013-08-27 02:07:00,
2013-08-26 21:12:00,77.0,72.5,29.95,SSW,203,2.5,4.6,86,0.00,,,0.00,WeatherDisplay:10.37,2013-08-27 02:12:00,
2013-08-26 21:17:00,76.9,72.7,29.95,SW,225,3.0,3.5,87,0.00,,,0.00,WeatherDisplay:10.37,2013-08-27 02:17:00,
2013-08-26 21:22:00,76.9,72.4,29.95,South,170,1.8,3.5,86,0.00,,,0.00,WeatherDisplay:10.37,2013-08-27 02:22:00,
2013-08-26 21:29:00,76.7,72.5,29.95,SSE,158,1.3,2.3,87,0.00,,,0.00,WeatherDisplay:10.37,2013-08-27 02:29:00,
2013-08-26 21:35:00,76.3,72.1,29.96,South,190,1.6,2.3,87,0.00,,,0.00,WeatherDisplay:10.37,2013-08-27 02:35:00,
2013-08-26 21:40:00,76.0,72.2,29.95,South,182,1.0,3.0,88,0.00,,,0.00,WeatherDisplay:10.37,2013-08-27 02:40:00,
2013-08-26 21:45:00,75.7,71.9,29.95,SSE,157,2.0,3.5,88,0.00,,,0.00,WeatherDisplay:10.37,2013-08-27 02:45:00,
2013-08-26 21:50:00,75.6,72.1,29.95,SSW,195,2.0,3.5,89,0.00,,,0.00,WeatherDisplay:10.37,2013-08-27 02:50:00,
2013-08-26 21:55:00,75.4,71.9,29.95,SSE,150,2.1,3.5,89,0.00,,,0.00,WeatherDisplay:10.37,2013-08-27 02:55:00,
2013-08-26 22:01:00,75.3,71.8,29.95,South,191,3.5,5.0,89,0.00,,,0.00,WeatherDisplay:10.37,2013-08-27 03:01:00,
2013-08-26 22:06:00,75.4,71.9,29.95,WSW,238,3.3,4.6,89,0.00,,,0.00,WeatherDisplay:10.37,2013-08-27 03:06:00,
2013-08-26 22:11:00,75.5,72.0,29.95,SW,236,3.2,4.6,89,0.00,,,0.00,WeatherDisplay:10.37,2013-08-27 03:11:00,
2013-08-26 22:16:00,75.6,72.1,29.95,SSW,203,3.2,4.6,89,0.00,,,0.00,WeatherDisplay:10.37,2013-08-27 03:16:00,
2013-08-26 22:21:00,75.6,72.1,29.95,SSE,160,2.2,5.0,89,0.00,,,0.00,WeatherDisplay:10.37,2013-08-27 03:21:00,
2013-08-26 22:27:00,75.5,72.0,29.95,SE,146,2.9,6.0,89,0.00,,,0.00,WeatherDisplay:10.37,2013-08-27 03:27:00,
2013-08-26 22:32:00,75.4,71.9,29.96,South,173,2.5,4.6,89,0.00,,,0.00,WeatherDisplay:10.37,2013-08-27 03:32:00,
2013-08-26 22:37:00,75.3,71.8,29.96,SW,226,1.7,3.5,89,0.00,,,0.00,WeatherDisplay:10.37,2013-08-27 03:37:00,
2013-08-26 22:42:00,75.1,72.0,29.95,South,181,2.4,5.8,90,0.00,,,0.00,WeatherDisplay:10.37,2013-08-27 03:42:00,
2013-08-26 22:48:00,75.0,71.9,29.95,SW,219,1.9,4.6,90,0.00,,,0.00,WeatherDisplay:10.37,2013-08-27 03:48:00,
2013-08-26 22:54:00,75.1,72.0,29.95,SSW,193,2.6,3.5,90,0.00,,,0.00,WeatherDisplay:10.37,2013-08-27 03:54:00,
2013-08-26 22:59:00,75.0,71.9,29.95,SSW,198,3.2,3.5,90,0.00,,,0.00,WeatherDisplay:10.37,2013-08-27 03:59:00,
2013-08-26 23:01:00,75.0,71.9,29.95,SW,218,2.3,3.5,90,0.00,,,0.00,WeatherDisplay:10.37,2013-08-27 04:01:00,
2013-08-26 23:02:00,75.0,71.9,29.96,SW,230,2.9,5.0,90,0.00,,,0.00,WeatherDisplay:10.37,2013-08-27 04:02:00,
2013-08-26 23:03:00,75.0,71.9,29.95,SSW,200,3.1,5.8,90,0.00,,,0.00,WeatherDisplay:10.37,2013-08-27 04:03:00,
2013-08-26 23:09:00,75.0,71.9,29.95,SSW,207,3.0,4.6,90,0.00,,,0.00,WeatherDisplay:10.37,2013-08-27 04:09:00,
2013-08-26 23:14:00,74.9,71.8,29.95,SW,219,3.3,4.6,90,0.00,,,0.00,WeatherDisplay:10.37,2013-08-27 04:14:00,
2013-08-26 23:19:00,75.0,71.9,29.95,SSE,148,3.1,5.8,90,0.00,,,0.00,WeatherDisplay:10.37,2013-08-27 04:19:00,
2013-08-26 23:25:00,75.0,71.8,29.95,SSW,201,3.0,6.0,90,0.00,,,0.00,WeatherDisplay:10.37,2013-08-27 04:25:00,
2013-08-26 23:30:00,74.9,71.8,29.95,SSW,208,3.0,6.0,90,0.00,,,0.00,WeatherDisplay:10.37,2013-08-27 04:30:00,
2013-08-26 23:35:00,74.9,71.8,29.95,South,169,3.0,5.8,90,0.00,,,0.00,WeatherDisplay:10.37,2013-08-27 04:35:00,
2013-08-26 23:40:00,74.8,71.7,29.95,SSE,160,3.9,6.9,90,0.00,,,0.00,WeatherDisplay:10.37,2013-08-27 04:40:00,
2013-08-26 23:45:00,74.8,71.7,29.95,SSW,195,3.0,4.6,90,0.00,,,0.00,WeatherDisplay:10.37,2013-08-27 04:45:00,
2013-08-26 23:50:00,74.7,71.6,29.95,South,190,3.6,6.0,90,0.00,,,0.00,WeatherDisplay:10.37,2013-08-27 04:50:00,
2013-08-26 23:56:00,74.6,71.5,29.95,South,175,3.7,5.8,90,0.00,,,0.00,WeatherDisplay:10.37,2013-08-27 04:56:00,